Regional Weather Roundup
Issued by NWS

Home | Current Version | Previous Version | Graphics & Text | Print | Product List | Glossary On
Versions: 1 2 3 4 5 6 7 8 9 10 11 12 13 14 15 16 17 18 19 20 21 22 23 24 25 26
000
ASUS45 KTFX 271410
RWRMT
MONTANA REGIONAL WEATHER ROUNDUP
NATIONAL WEATHER SERVICE GREAT FALLS MT
800 AM MDT THU JUL 27 2017

NOTE: "FAIR" INDICATES FEW OR NO CLOUDS BELOW 12000 FEET WITH NO
SIGNIFICANT WEATHER AND/OR OBSTRUCTIONS TO VISIBILITY.

MTZ001>007-043-271500-
WEST OF THE DIVIDE

CITY           SKY/WX    TMP DP  RH WIND       PRES   REMARKS
KALISPELL      SUNNY     60  48  64 CALM      30.06R
MISSOULA       PTSUNNY   62  50  64 N3        30.10R
BUTTE          CLOUDY    57  45  64 E3        30.23S
MULLAN PASS    MOSUNNY   66  34  30 CALM      30.23R
DEER LODGE       N/A     61  52  72 CALM      30.20R
EUREKA           N/A     63  37  39 MISG      30.04R
HAMILTON         N/A     64  48  55 S13G20    30.12S
LIBBY            N/A     59  43  55 SE3       30.04S
$$

MTZ008-052>055-271500-
SOUTHWEST MONTANA

CITY           SKY/WX    TMP DP  RH WIND       PRES   REMARKS
BOZEMAN        SUNNY     63  51  65 SE7       30.16F
DILLON         SUNNY     59  50  72 S10       30.21S
W YELLOWSTONE  FOG       48  48 100 CALM      30.35R VSB<1/4
ENNIS          SUNNY     59  48  67 CALM      30.27S
THREE FORKS      N/A     66  51  58 CALM      30.13S
$$

MTZ009-010-012-014-046-048-049-054-271500-
EAST SLOPES AND CENTRAL MONTANA

CITY           SKY/WX    TMP DP  RH WIND       PRES   REMARKS
CUT BANK       CLOUDY    67  42  40 NW7       30.05R
GREAT FALLS    CLOUDY    71  43  36 NW9       30.05R
MALMSTROM AFB  PTSUNNY   71  42  35 SW7G21    30.05R
HELENA         CLOUDY    71  51  49 NW3       30.11F
CHOTEAU          N/A     70  39  32 SW3       30.08R
CONRAD           N/A     61  50  67 N1        30.06R
$$

MTZ011-013-016-021-045-047-050-051-271500-
NORTH CENTRAL MONTANA

CITY           SKY/WX    TMP DP  RH WIND       PRES   REMARKS
HAVRE          PTSUNNY   68  48  48 E10       29.97S
LEWISTOWN      MOSUNNY   67  47  48 E7        30.08R
N BAR RANCH    CLOUDY    66  52  59 SE3       30.13R
CHINOOK          N/A     70  52  52 E7        29.98S
$$

MTZ017>020-022>027-061-062-271500-
NORTHEAST MONTANA

CITY           SKY/WX    TMP DP  RH WIND       PRES   REMARKS
GLASGOW        MOSUNNY   72  51  47 E25G32    29.98S
JORDAN           N/A     76  52  43 CALM      29.98R
SIDNEY         MOSUNNY   69  56  62 E15G23    30.09S
WOLF POINT     CLOUDY    74  54  49 E16G28    30.02F
MALTA          SUNNY     70  52  52 E13       29.98S
PLENTYWOOD       N/A     70  57  64 SE12      30.07F
POPLAR           N/A     70  55  60 E21G29    30.04S
$$

MTZ028>42-056>058-271500-
SOUTHCENTRAL AND SOUTHEAST MONTANA

CITY           SKY/WX    TMP DP  RH WIND       PRES   REMARKS
BAKER          PTSUNNY   75  52  44 S9        30.08S
BILLINGS       CLOUDY    72  52  49 SW9       30.06S
LIVINGSTON     MOSUNNY   72  48  42 SW18      30.14S
MILES CITY     CLOUDY    76  54  46 SE8       30.00F
BIG TIMBER     SUNNY     68  50  52 W18       30.14S
FORSYTH          N/A     75  54  46 SE5       29.99S
LAUREL           N/A     69  55  60 SW1       30.06F
$$

REGIONAL REPORTS...DAKOTAS

CITY           SKY/WX    TMP DP  RH WIND       PRES   REMARKS
WILLISTON      LGT RAIN  67  59  75 S15G23    30.09R
MINOT          CLOUDY    70  59  68 S7        30.11S
DICKINSON      SUNNY     69  58  67 E17       30.12S
BEACH            N/A     66  54  63 E18       30.12F
CROSBY           N/A     72  57  60 S12       30.10R
TIOGA            N/A     64  64 100 S13G22    30.12S
WATFORD CITY   PTSUNNY   63  61  94 E16       30.12F THUNDER
BISMARCK       CLOUDY    68  61  78 E5        30.17F
GRAND FORKS    PTSUNNY   68  63  84 W3        30.13R
FARGO          SUNNY     70  62  76 NW5       30.14R
BUFFALO SD       N/A     74  58  57 S14       30.04S
RAPID CITY     CLOUDY    73  60  63 S10       30.15S
$$

REGIONAL REPORTS...WYOMING/IDAHO/WASHINGTON

CITY           SKY/WX    TMP DP  RH WIND       PRES   REMARKS
GILLETTE       SUNNY     72  59  63 S13       30.12S
SHERIDAN       PTSUNNY   66  55  67 CALM      30.10R
BUFFALO WY     CLOUDY    66  55  67 CALM      30.15S
YELLOWSTONE LA   N/A     52  49  89 CALM      30.42S
IDAHO FALLS    CLOUDY    58  57  97 NE3       30.23R
BOISE          MOSUNNY   69  52  54 SE3       30.10R
SPOKANE        MOSUNNY   66  47  50 S9        30.02R
$$

REGIONAL REPORTS...ALBERTA

CITY           SKY/WX    TMP DP  RH WIND       PRES   REMARKS
EDMONTON       MOSUNNY   61  57  88 N3        29.89S
CALGARY        MOSUNNY   63  45  51 SE3       29.97S
LETHBRIDGE     PTSUNNY   68  41  37 SW10      29.97S
MEDICINE HAT   PTSUNNY   73  50  43 W3        29.94R
WATERTON GATE    N/A     66  43  42 S7          N/A
CARDSTON         N/A     64  39  39 SW8         N/A
MILK RIVER       N/A     59  43  55 W8          N/A
$$

REGIONAL REPORTS...SASKATCHEWAN

CITY           SKY/WX    TMP DP  RH WIND       PRES   REMARKS
SWIFT CURRENT  SUNNY     72  52  49 S9        30.01S
REGINA         MOSUNNY   66  54  63 SE12      30.06F
SASKATOON      MOSUNNY   68  55  64 SE7       30.03S
CYPRESS HILLS    N/A     66  46  48 SE8         N/A
VAL MARIE        N/A     73  48  40 SE15G21     N/A
ROCKGLEN         N/A     66  54  63 SE9         N/A
ASSINIBOIA       N/A     61  55  82 SE2         N/A
$$




USA.gov is the U.S. government's official web portal to all federal, state and local government web resources and services.